User: anonymous   Login
Location: Wien
(48.2082°N, 16.3738°E)
Time: 21:13:44
(UTC+02:00)
Language:

JY1SAT - Orbit

View from above orbital plane
View from above orbital plane
View from above satellite
View from above satellite

Ground track
Ground track

The orbit data is extracted from the following two-line orbital elements,

1 43803U 18099AX  24112.71920031  .00020549  00000-0  14087-2 0  9990
2 43803  97.5253 172.6817 0011448 133.8787 226.3388 15.06007166294197
Epoch (UTC): 21 April 2024 17:15:38
Eccentricity: 0.0011448
inclination: 97.5253°
perigee height: 540 km
apogee height: 556 km
right ascension of ascending node: 172.6817°
argument of perigee: 133.8787°
revolutions per day: 15.06007166
mean anomaly at epoch: 226.3388°
orbit number at epoch: 29419

The dashed part of the orbit path shows where the satellite is in the earth's shadow,  

DLR